Location: Gro�sch�nbrunn
(49.5760°N, 11.8868°E)
Time: 09:22:02
(UTC+00:00)

N. Korean satellite - Pass Details

Date: 02 December 2020
Orbit: 453 x 502 km, 97.2° (Epoch: 16 January)

Event Time Altitude Azimuth Distance (km) Brightness Sun altitude
Rises 05:14:15 0° 8° (N) 2,563 10.1 -14.7°
Reaches altitude 10° 05:16:21 10° 3° (N) 1,686 9.2 -14.3°
Maximum altitude 05:19:51 49° 288° (WNW) 649 6.7 -13.8°
Drops below altitude 10° 05:23:23 10° 213° (SSW) 1,695 9.2 -13.3°
Sets 05:25:30 0° 208° (SSW) 2,578 10.2 -12.9°
